[[{"header":{"parameterUnit":"m.s-1","parameterCategory":1,"la1":30.2991,"la2":30.254,"lo1":-89.0895,"lo2":-89.0444,"dy":0.0017,"dx":0.0017,"nx":28,"ny":28,"refTime":"2025-05-16T09:00:00:Z","depth":0,"parameterNumber":2,"parameterNumberName":"U-component_of_WINDS"},"data":[0,0,0,0,0,0,0,0,0,0,0,0,0,0,0,0,0,0,0,0,0,0,0,0,0,0,0,0,0,0,0,0,0,0,0,0,0,0,0,0,0,0,0,0,0,0,0,0,0,0,0,0,0,0,0,0,0,0,3.1947,3.1948,0,3.2051,3.2052,3.2053,3.202,3.2018,3.2016,3.2014,3.212,3.2125,3.2129,0,0,0,0,0,0,0,0,0,0,0,0,0,3.1718,3.1722,3.1947,3.1948,3.1949,3.205,3.2052,3.2053,3.2021,3.2018,3.2015,3.2013,3.2118,3.2124,3.213,0,0,0,0,0,0,0,0,0,0,0,0,0,3.1819,3.1724,3.1946,3.1945,3.1946,3.205,3.2052,3.2054,3.2021,3.2018,3.2014,3.2011,3.2116,3.2123,3.2131,3.2242,0,0,3.2153,3.2156,0,0,0,0,0,0,0,0,3.1813,3.1827,3.1944,3.1945,3.1947,3.2019,3.201,3.2117,3.2022,3.1993,3.2014,3.201,3.2089,3.2098,3.2125,3.2247,3.2252,3.2154,3.2158,3.2161,3.2163,0,0,0,0,0,0,0,3.1806,3.1823,3.1988,3.1946,3.1947,3.1939,3.1949,3.203,3.2058,3.1995,3.1993,3.2006,3.2089,3.2118,3.2127,3.2253,3.2153,3.216,3.2165,3.2167,3.247,3.2473,0,0,0,0,0,0,3.1799,3.1817,3.1984,3.1991,3.187,3.1946,3.1957,3.1999,3.2057,3.2063,3.2008,3.2004,3.2107,3.2119,3.2131,3.2264,3.2161,3.2168,3.2172,3.2466,3.2471,3.2475,0,0,0,0,0,0,3.1794,3.1814,3.198,3.1904,3.1924,3.1953,3.2,3.2003,3.2032,3.2067,3.2072,3.2033,3.2105,3.2121,3.2214,3.2267,3.2171,3.2178,3.2462,3.2468,3.2473,3.2531,0,0,0,0,0,0,3.1787,3.1812,3.1856,3.1905,3.1928,3.2063,3.2003,3.2007,3.2045,3.204,3.2092,3.2097,3.2104,3.2204,3.2222,3.2275,3.2184,3.2457,3.2465,3.2471,3.2525,3.2538,3.2549,0,0,0,0,0,3.1779,3.1868,3.1858,3.1878,3.1983,3.2066,3.2079,3.2085,3.2049,3.2092,3.2115,3.2095,3.2259,3.2213,3.2234,3.229,3.2454,3.2462,3.247,3.2519,3.2535,3.2549,0,0,0,0,0,0,3.1825,3.1875,3.1864,3.1971,3.2014,3.206,3.2115,3.2102,3.2156,3.2149,3.2154,3.2166,3.2262,3.2286,3.2234,3.24,3.2351,3.2364,3.2381,3.2397,3.2409,3.24,3.219,0,0,0,0,0,3.1847,3.1911,3.1951,3.2042,3.2064,3.2086,3.2122,3.2123,3.2167,3.2186,3.2215,3.2259,3.232,3.236,3.2418,3.2528,3.2538,3.2577,3.2589,3.2599,3.261,3.2668,3.2685,3.2502,3.2501,3.2501,0,0,3.1894,3.193,3.1969,3.2052,3.2085,3.215,3.2101,3.2172,3.222,3.2196,3.2286,3.2309,3.2358,3.246,3.2507,3.2483,3.2662,3.261,3.2617,3.2622,3.2678,3.2695,3.271,3.2507,3.2506,3.2505,0,0,3.2013,3.2047,3.2125,3.2159,3.2211,3.2224,3.2243,3.2291,3.2305,3.2395,3.2378,3.2435,3.254,3.2575,3.2607,3.2737,3.2721,3.2756,3.282,3.2877,3.2891,3.2904,3.2949,3.2965,3.2767,3.2767,3.2767,0,3.2065,3.2162,3.2167,3.2239,3.2275,3.2256,3.2335,3.2368,3.2436,3.2461,3.2433,3.2564,3.2596,3.2705,3.2736,3.2764,3.2784,3.275,3.2889,3.2902,3.2914,3.2956,3.2973,3.2771,3.277,3.277,3.277,0,3.2222,3.229,3.2347,3.2412,3.2455,3.253,3.2546,3.2588,3.2585,3.2601,3.2692,3.273,3.2794,3.2821,3.2819,3.2929,3.2912,3.2887,3.2838,3.2935,3.2975,3.2991,3.2776,3.2775,3.2774,3.2773,0,0,3.2372,3.2438,3.2459,3.2488,3.2542,3.2594,3.2668,3.2731,3.2767,3.2814,3.2875,3.2964,3.294,3.2976,3.2978,3.3028,3.3126,3.2996,3.2997,3.3017,3.3248,3.3265,3.3284,3.3116,3.3119,3.3122,3.3243,0,3.2494,3.2623,3.2629,3.2747,3.2808,3.2791,3.2855,3.2895,3.2912,3.2966,3.2985,3.3047,3.3012,3.3034,3.3082,3.3104,3.3172,3.3095,3.3171,3.3174,3.3158,3.3305,3.3324,3.3437,3.3259,3.3261,3.3263,0,3.2653,3.2704,3.2828,3.2872,3.2898,3.2956,3.3013,3.3065,3.311,3.3118,3.3158,3.3152,3.3227,3.3175,3.3277,3.3224,3.3256,3.3271,3.3275,3.3281,3.3223,3.3313,3.3473,3.3489,3.3288,3.3286,3.3285,0,3.2747,3.2847,3.2934,3.2959,3.3014,3.3054,3.3078,3.312,3.3157,3.3207,3.323,3.3289,3.332,3.3365,3.3374,3.3337,3.3475,3.3425,3.3483,3.3483,3.3512,3.351,3.3677,3.3536,3.3535,3.3535,3.3535,0,3.2881,3.2957,3.2977,3.303,3.3114,3.312,3.3202,3.3224,3.3261,3.3317,3.3306,3.3359,3.3369,3.3424,3.3432,3.3513,3.3528,3.3536,3.3537,3.3536,3.3535,3.3556,3.3548,3.354,3.3539,3.3538,3.3537,0,3.3,3.3017,3.3109,3.3153,3.3166,3.3226,3.3263,3.3313,3.3328,3.3399,3.3416,3.3441,3.3504,3.3518,3.3594,3.36,3.3696,3.369,3.3681,3.368,3.3736,3.373,3.3921,3.3946,3.379,3.3791,3.3793,0,3.3084,3.3142,3.3191,3.3228,3.3254,3.3314,3.3351,3.3359,3.3399,3.3453,3.3496,3.3559,3.3609,3.3711,3.3735,3.3793,3.3787,3.385,3.3795,3.3792,3.3785,3.3781,3.3786,3.386,3.3862,3.3863,3.3864,0,3.323,3.3235,3.3289,3.3347,3.3391,3.3437,3.348,3.3511,3.3524,3.3569,3.3634,3.3673,3.3749,3.3811,3.3868,3.3893,3.388,3.3881,3.3897,3.3896,3.3887,3.3891,3.3707,3.3876,3.3875,3.3874,3.3874,3.3873,3.3333,3.3382,3.3425,3.3485,3.3519,3.3559,3.3608,3.3629,3.3683,3.3746,3.3748,3.3818,3.386,3.3935,3.3963,3.4017,3.3998,3.4022,3.4027,3.4033,3.4037,3.388,3.4028,3.4028,3.4028,3.4027,3.4027,0,3.3476,3.3502,3.3558,3.3619,3.3666,3.3651,3.3697,3.3738,3.38,3.384,3.3889,3.3963,3.4022,3.405,3.4109,3.4147,3.4142,3.4161,3.4158,3.4163,3.4052,3.4031,3.4164,3.4164,3.4164,3.4164,3.4164,3.4164,3.3556,3.3639,3.3649,3.3748,3.3773,3.3842,3.387,3.3906,3.3938,3.4021,3.407,3.4088,3.4123,3.4183,3.4237,3.4243,3.4264,3.4286,3.429,3.4185,3.4171,3.4158,3.4138,3.4291,3.4291,3.4396,3.4397,3.4398]},{"header":{"parameterUnit":"m.s-1","parameterCategory":1,"la1":30.2991,"la2":30.254,"lo1":-89.0895,"lo2":-89.0444,"dy":0.0017,"dx":0.0017,"nx":28,"ny":28,"refTime":"2025-05-16T09:00:00:Z","depth":0,"parameterNumber":3,"parameterNumberName":"V-component_of_WINDS"},"data":[0,0,0,0,0,0,0,0,0,0,0,0,0,0,0,0,0,0,0,0,0,0,0,0,0,0,0,0,0,0,0,0,0,0,0,0,0,0,0,0,0,0,0,0,0,0,0,0,0,0,0,0,0,0,0,0,0,0,4.8869,4.887,0,4.8979,4.898,4.8982,4.8947,4.8944,4.8942,4.894,4.9047,4.9052,4.9057,0,0,0,0,0,0,0,0,0,0,0,0,0,4.8622,4.8627,4.8869,4.887,4.8872,4.8979,4.898,4.8982,4.8947,4.8944,4.8941,4.8939,4.9046,4.9051,4.9058,0,0,0,0,0,0,0,0,0,0,0,0,0,4.8731,4.8629,4.8869,4.8867,4.8868,4.8979,4.898,4.8982,4.8948,4.8944,4.8941,4.8937,4.9044,4.9051,4.9058,4.9175,0,0,4.9081,4.9085,0,0,0,0,0,0,0,0,4.8724,4.874,4.8866,4.8868,4.8869,4.8946,4.8933,4.9047,4.8949,4.8917,4.894,4.8936,4.9016,4.9025,4.9054,4.918,4.9184,4.9082,4.9087,4.909,4.9092,0,0,0,0,0,0,0,4.8717,4.8735,4.8912,4.8868,4.887,4.8859,4.8871,4.8954,4.8985,4.892,4.8918,4.8931,4.9016,4.9046,4.9056,4.9186,4.9082,4.9089,4.9093,4.9096,4.9411,4.9415,0,0,0,0,0,0,4.8709,4.8729,4.8909,4.8916,4.8787,4.8867,4.8879,4.8925,4.8984,4.899,4.8934,4.8929,4.9035,4.9047,4.906,4.9199,4.909,4.9097,4.9101,4.9407,4.9412,4.9416,0,0,0,0,0,0,4.8704,4.8726,4.8904,4.8822,4.8844,4.8875,4.8925,4.8929,4.8959,4.8995,4.8999,4.896,4.9033,4.9049,4.9146,4.9202,4.91,4.9107,4.9403,4.9409,4.9414,4.948,0,0,0,0,0,0,4.8697,4.8724,4.8771,4.8823,4.8848,4.8992,4.8929,4.8933,4.8973,4.8967,4.902,4.9026,4.9031,4.9135,4.9154,4.9211,4.9113,4.9398,4.9406,4.9412,4.9473,4.9487,4.9499,0,0,0,0,0,4.8689,4.8784,4.8773,4.8795,4.8907,4.8995,4.9009,4.9015,4.8978,4.9023,4.9046,4.9024,4.9193,4.9146,4.9166,4.9226,4.9394,4.9403,4.9412,4.9467,4.9484,4.9499,0,0,0,0,0,0,4.8735,4.8791,4.8779,4.8895,4.8941,4.8989,4.9047,4.9034,4.909,4.9083,4.9086,4.9098,4.9198,4.9222,4.9168,4.9341,4.9288,4.9301,4.9323,4.934,4.9353,4.9345,4.9119,0,0,0,0,0,4.8759,4.8828,4.8872,4.8969,4.8993,4.9016,4.9055,4.9055,4.9102,4.9121,4.9151,4.9196,4.9259,4.93,4.936,4.9475,4.9486,4.9527,4.954,4.9551,4.9562,4.9624,4.9642,4.9445,4.9445,4.9444,0,0,4.8809,4.8848,4.8891,4.8979,4.9015,4.9084,4.9033,4.9108,4.9159,4.9132,4.9227,4.925,4.9299,4.9406,4.9455,4.9429,4.9619,4.9562,4.957,4.9576,4.9634,4.9653,4.967,4.9451,4.9449,4.9449,0,0,4.8935,4.8972,4.9057,4.9094,4.9149,4.9163,4.9184,4.9234,4.9249,4.9344,4.9325,4.9384,4.9493,4.9529,4.9562,4.97,4.9682,4.9719,4.9789,4.9849,4.9864,4.9878,4.9927,4.9944,4.973,4.9731,4.9731,0,4.899,4.9096,4.9101,4.9179,4.9218,4.9198,4.9282,4.9317,4.9388,4.9415,4.9385,4.9521,4.9553,4.9668,4.9701,4.9728,4.975,4.9714,4.9862,4.9876,4.9889,4.9935,4.9954,4.9735,4.9734,4.9734,4.9733,0,4.9159,4.9233,4.9294,4.9365,4.9411,4.9491,4.9508,4.9552,4.9549,4.9566,4.9661,4.9699,4.9766,4.9793,4.979,4.9907,4.9889,4.9861,4.9807,4.9912,4.9955,4.9973,4.9741,4.9739,4.9738,4.9737,0,0,4.9319,4.9392,4.9415,4.9446,4.9505,4.9561,4.9639,4.9706,4.9744,4.9793,4.9858,4.995,4.9924,4.9961,4.9961,5.0014,5.012,4.9979,4.998,5.0004,5.025,5.0271,5.0292,5.0108,5.0111,5.0114,5.0246,0,4.945,4.9591,4.9598,4.9725,4.9792,4.9773,4.9841,4.9883,4.9901,4.9958,4.9976,5.0042,5.0002,5.0025,5.0076,5.0097,5.017,5.0087,5.0167,5.017,5.0156,5.0315,5.0338,5.0461,5.0263,5.0266,5.0268,0,4.9623,4.9679,4.9813,4.9862,4.989,4.9952,5.0013,5.0069,5.0115,5.0123,5.0165,5.0157,5.0235,5.0178,5.0285,5.0229,5.0261,5.0276,5.0281,5.0289,5.0226,5.0327,5.05,5.0519,5.0295,5.0293,5.0291,0,4.9726,4.9834,4.9929,4.9956,5.0015,5.0059,5.0085,5.0128,5.0167,5.022,5.0245,5.0305,5.0338,5.0384,5.0392,5.035,5.0499,5.0443,5.0507,5.0507,5.0539,5.0537,5.072,5.056,5.056,5.056,5.0559,0,4.9872,4.9955,4.9976,5.0034,5.0125,5.0131,5.0221,5.0243,5.0282,5.0342,5.0328,5.0384,5.0391,5.0449,5.0455,5.0542,5.0556,5.0564,5.0565,5.0566,5.0565,5.0588,5.058,5.0564,5.0563,5.0562,5.0562,0,5.0003,5.0021,5.0122,5.017,5.0183,5.0248,5.0288,5.0342,5.0357,5.0434,5.0452,5.0476,5.0543,5.0555,5.0633,5.0637,5.0741,5.0733,5.0726,5.0725,5.0788,5.0782,5.0992,5.102,5.0842,5.0843,5.0845,0,5.0095,5.0159,5.0213,5.0253,5.0282,5.0347,5.0388,5.0394,5.0437,5.0494,5.0541,5.0606,5.066,5.0767,5.079,5.0849,5.0842,5.0912,5.0851,5.085,5.0843,5.084,5.0845,5.0924,5.0926,5.0927,5.0929,0,5.0257,5.0263,5.0323,5.0386,5.0435,5.0484,5.0531,5.0564,5.0576,5.0624,5.0694,5.0735,5.0815,5.088,5.0939,5.0963,5.0948,5.0947,5.0965,5.0967,5.0961,5.0965,5.0758,5.0943,5.0941,5.094,5.0939,5.0939,5.0372,5.0427,5.0474,5.054,5.0576,5.062,5.0674,5.0696,5.0754,5.0822,5.0821,5.0897,5.0939,5.1018,5.1045,5.1103,5.1081,5.1107,5.1113,5.112,5.1126,5.0951,5.1114,5.1113,5.1113,5.1112,5.1112,0,5.0533,5.0562,5.0623,5.069,5.0742,5.0724,5.0774,5.0818,5.0885,5.0927,5.098,5.1059,5.1121,5.1149,5.121,5.125,5.1244,5.1266,5.1263,5.1269,5.1142,5.1121,5.1269,5.1269,5.1269,5.1269,5.1269,5.1269,5.0623,5.0715,5.0726,5.0835,5.0863,5.0938,5.0968,5.1008,5.1041,5.113,5.1183,5.1201,5.1236,5.1299,5.1355,5.1361,5.1384,5.1409,5.1412,5.1294,5.1278,5.1262,5.1242,5.1414,5.1414,5.1534,5.1535,5.1536]}]]